Emigrant Gap, CA

12:19 PM PDT on September 28, 2016 (GMT -0700)
Blue Canyon-Nyack

Weather History for KBLU - December, 2012

Change the Weather History Date:

Saturday, December 29, 2012

  Actual Average Record
Temperature  
Mean Temperature 31 °F -  
Max Temperature 34 °F 43 °F 66 °F (1980)
Min Temperature 28 °F 31 °F 18 °F (1955)
Degree Days  
Heating Degree Days 34    
Moisture  
Dew Point 23 °F    
Average Humidity 74    
Maximum Humidity 85    
Minimum Humidity 64    
Precipitation  
Precipitation 0.00 in - - ()
Sea Level Pressure  
Sea Level Pressure 30.01 in    
Wind  
Wind Speed 2 mph (SW)    
Max Wind Speed 6 mph    
Max Gust Speed -    
Visibility 10 miles    
Events      
Averages and records for this station are not official NWS values.
T = Trace of Precipitation, MM = Missing Value Source: NWS Daily Summary

Daily Weather History Graph

Daily Weather History Graph

Search for Another Location

Airport or City:

Trip Planner

Search our weather history database for the weather conditions in past years. The results will help you decide how hot, cold, wet, or windy it might be!

Date:

Astronomy

Dec. 29, 2012 Rise Set
Actual Time 7:22 AM PST 4:48 PM PST
Civil Twilight 6:52 AM PST 5:18 PM PST
Nautical Twilight 6:18 AM PST 5:52 PM PST
Astronomical Twilight 5:45 AM PST 6:24 PM PST
Moon 6:25 PM PST (12/29) 7:59 AM PST (12/29)
Length of Visible Light 10h 26m
Length of Day
9h 26m
Full, 98% of the Moon is Illuminated
Dec 29
Full
Jan 4
Last Quarter
Jan 11
New
Jan 18
First Quarter
Jan 26
Full

Hourly Weather History & Observations

Time (PST) Temp. Windchill Dew Point Humidity Pressure Visibility Wind Dir Wind Speed Gust Speed Precip Events Conditions
12:52 AM 30.0 °F 24.1 °F 19.0 °F 64% 30.04 in 10.0 mi Variable 5.8 mph - N/A   Overcast
1:52 AM 28.0 °F - 21.0 °F 75% 30.06 in 10.0 mi Calm Calm - N/A   Overcast
2:52 AM 28.0 °F - 21.0 °F 75% 30.05 in 10.0 mi Calm Calm - N/A   Overcast
3:52 AM 28.9 °F - 21.0 °F 72% 30.04 in 10.0 mi Calm Calm - N/A   Overcast
4:52 AM 28.9 °F - 19.9 °F 69% 30.04 in 10.0 mi Calm Calm - N/A   Overcast
5:52 AM 28.0 °F - 19.9 °F 72% 30.04 in 10.0 mi Calm Calm - N/A   Overcast
6:52 AM 28.9 °F - 19.9 °F 69% 30.05 in 10.0 mi Calm Calm - N/A   Overcast
7:52 AM 28.9 °F 25.2 °F 19.9 °F 69% 30.05 in 10.0 mi Variable 3.5 mph - N/A   Overcast
8:52 AM 28.9 °F 23.9 °F 21.0 °F 72% 30.06 in 10.0 mi Variable 4.6 mph - N/A   Overcast
9:52 AM 30.0 °F - 21.9 °F 72% 30.06 in 10.0 mi Calm Calm - N/A   Overcast
10:52 AM 33.1 °F 28.7 °F 23.0 °F 66% 30.04 in 10.0 mi Variable 4.6 mph - N/A   Partly Cloudy
11:52 AM 32.0 °F 26.4 °F 21.9 °F 66% 30.02 in 10.0 mi South 5.8 mph - N/A   Overcast
12:52 PM 32.0 °F 27.5 °F 21.9 °F 66% 30.01 in 10.0 mi SW 4.6 mph - N/A   Overcast
1:52 PM 33.1 °F - 23.0 °F 66% 30.00 in 9.0 mi Calm Calm - 0.00 in   Overcast
2:52 PM 34.0 °F - 23.0 °F 64% 30.00 in 10.0 mi Calm Calm - N/A   Overcast
3:52 PM 33.1 °F 30.0 °F 23.0 °F 66% 29.99 in 10.0 mi WSW 3.5 mph - N/A   Clear
4:33 PM 30.2 °F - 24.8 °F 80% 29.94 in 10.0 mi Calm Calm - N/A   Overcast
4:52 PM 30.9 °F - 24.1 °F 76% 30.01 in 10.0 mi Calm Calm - N/A   Overcast
5:23 PM 30.2 °F - 24.8 °F 80% 29.96 in 10.0 mi Calm Calm - N/A   Overcast
5:47 PM 30.2 °F 26.7 °F 23.0 °F 75% 29.96 in 10.0 mi West 3.5 mph - N/A   Overcast
5:52 PM 30.9 °F - 24.1 °F 76% 30.01 in 10.0 mi Calm Calm - N/A   Overcast
6:06 PM 30.2 °F - 24.8 °F 80% 29.95 in 10.0 mi Calm Calm - N/A   Overcast
6:52 PM 28.9 °F - 25.0 °F 85% 30.02 in 10.0 mi Calm Calm - N/A   Mostly Cloudy
7:52 PM 30.0 °F - 24.1 °F 79% 30.03 in 10.0 mi Calm Calm - N/A   Overcast
8:09 PM 30.2 °F - 24.8 °F 80% 29.97 in 10.0 mi Calm Calm - N/A   Overcast
8:52 PM 30.0 °F - 24.1 °F 79% 30.03 in 10.0 mi Calm Calm - N/A   Overcast
9:52 PM 30.0 °F - 24.1 °F 79% 30.03 in 10.0 mi Calm Calm - N/A   Overcast
10:03 PM 30.2 °F - 24.8 °F 80% 29.97 in 10.0 mi Calm Calm - N/A   Overcast
10:28 PM 30.2 °F - 23.0 °F 75% 29.97 in 10.0 mi Calm Calm - N/A   Overcast
10:52 PM 28.9 °F - 24.1 °F 82% 30.02 in 10.0 mi Calm Calm - N/A   Overcast
11:52 PM 30.0 °F - 23.0 °F 75% 30.02 in 10.0 mi Calm Calm - N/A   Overcast